Regional Weather Roundup
Issued by NWS

Home | Current Version | Previous Version | Text Only | Print | Product List | Glossary On
Versions: 1 2 3 4 5 6 7 8 9 10 11 12 13 14 15 16 17 18 19 20 21 22 23 24 25 26 27 28 29 30 31 32 33 34 35 36 37 38 39 40 41 42 43 44 45 46 47 48 49 50
023
ASUS43 KDMX 190701
RWRIA

WEATHER ROUNDUP FOR IOWA
NATIONAL WEATHER SERVICE DES MOINES IA
100 AM CST SUN FEB 19 2017

NOTE: "FAIR" INDICATES FEW OR NO CLOUDS BELOW 12,000 FEET WITH NO
SIGNIFICANT WEATHER AND/OR OBSTRUCTIONS TO VISIBILITY.

* - THESE STATIONS ARE NOT NWS STATIONS...THUS NOT UNDER NWS
QUALITY CONTROL.  THEY ALSO DO NOT REPORT WEATHER SUCH
AS PRECIPITATION OR FOG.

IAZ001>003-012>014-020>022-031>034-043>046-190800-
   NORTHWEST IOWA

CITY           SKY/WX    TMP DP  RH WIND       PRES   REMARKS
CARROLL *      CLOUDY    34  34 100 CALM      29.87R
CHEROKEE *     CLEAR     32  32 100 CALM      29.84S
DENISON *      CLOUDY    39  34  81 E5        29.83S
LE MARS *      PTCLDY    36  34  93 CALM      29.84R
SHELDON *      CLOUDY    36  36 100 SE6       29.82S WCI  31
SIOUX CITY     PTCLDY    38  33  82 SE7       29.83R WCI  33
SPENCER        CLEAR     33  32  96 E6        29.85S FOG     WCI  28
STORM LAKE *   CLEAR     41  39  93 SE9       29.85S
$$

IAZ055>058-069>071-079>083-090>094-190800-
   SOUTHWEST IOWA

CITY           SKY/WX    TMP DP  RH WIND       PRES   REMARKS
ATLANTIC *     CLOUDY    34  32  93 N3        29.86S
CLARINDA *     MOCLDY    36  32  87 CALM      29.88R
COUNCIL BLFS * PTCLDY    46  32  57 SE7       29.84S
CRESTON *      PTCLDY    43  30  61 SE7       29.89R
HARLAN  *      CLOUDY    37  36  93 CALM      29.88S
LAMONI         CLOUDY    49  31  49 SE5       29.88R
RED OAK *      PTCLDY    45  32  61 CALM      29.85S
SHENANDOAH *   PTCLDY    41  32  70 E3        29.85S
$$

IAZ047>049-059>061-072>074-084-190800-
   CENTRAL IOWA

CITY           SKY/WX    TMP DP  RH WIND       PRES   REMARKS
AMES           FOG       36  36 100 CALM      29.89R VSB 1/4
ANKENY *       CLOUDY    34  32  93 CALM      29.90R
BOONE *        FOG       39  39 100 E6        29.87S VSB<1/4 WCI  35
CHARITON *     PTCLDY    43  30  61 SE7       29.88R
DES MOINES     PTCLDY    42  34  73 E3        29.89R
GRINNELL*      CLOUDY    41  39  90 E7        29.90R
KNOXVILLE *    CLOUDY    45  32  61 E6        29.87S
MARSHALLTOWN   FOG       30  30 100 CALM      29.89R VSB 1/4
NEWTON *       CLOUDY    41  37  87 E8        29.88R
PELLA *        CLOUDY    38  33  82 CALM      29.90R
PERRY *          N/A     37  36  97 CALM      29.88R
$$

IAZ004>006-015-016-023>025-035-036-190800-
   NORTH CENTRAL IOWA

CITY           SKY/WX    TMP DP  RH WIND       PRES   REMARKS
ALGONA *       FOG       36  36 100 SE8       29.87S VSB<1/4 WCI  29
CLARION *      FOG       36  36 100 SE6       29.88S VSB 3/4 WCI  31
ESTHERVILLE    CLOUDY    32  32 100 S7        29.85S FOG     WCI  26
FORT DODGE *   CLOUDY    34  30  86 E5        29.88S VSB 1/4 WCI  30
MASON CITY     FOG       30  29  96 CALM      29.90R VSB 1/4
FOREST CITY *  FOG       30  27  86 CALM      29.88S VSB 1/4
IOWA FALLS *   FOG       32  32  99 CALM      29.89S VSB<1/4
$$

IAZ007>011-017>019-026>030-037>042-050>054-066-190800-
   NORTHEAST IOWA

CITY           SKY/WX    TMP DP  RH WIND       PRES   REMARKS
CEDAR RAPIDS   CLOUDY    34  34 100 CALM      29.88S
CHARLES CITY * FOG       36  36 100 CALM      29.89R VSB<1/4
CLINTON *      CLEAR     34  32  92 N9        29.90R WCI  27
DECORAH *      CLOUDY    34  34 100 CALM      29.87F
DUBUQUE        CLEAR     35  33  92 CALM      29.88F
MONTICELLO *   PTCLDY    30  30 100 CALM      29.88F
OELWEIN *      CLOUDY    37  36  93 NE5       29.89S WCI  34
WATERLOO       FOG       29  27  92 CALM      29.89S VSB 1/4
$$

IAZ064-065-067-068-078-190800-
   EAST CENTRAL IOWA

CITY           SKY/WX    TMP DP  RH WIND       PRES   REMARKS
DAVENPORT      CLEAR     31  29  92 N7        29.90R FOG     WCI  24
IOWA CITY      CLOUDY    33  29  85 CALM      29.91R
MUSCATINE *    CLOUDY    34  28  80 CALM      29.90S
QUAD CITIES    CLOUDY    34  28  79 CALM      29.89R
$$

IAZ062-063-075>077-085>089-095>099-190800-
   SOUTHEAST IOWA

CITY           SKY/WX    TMP DP  RH WIND       PRES   REMARKS
BURLINGTON     CLEAR     42  32  67 CALM      29.89R
FAIRFIELD *    CLOUDY    37  30  75 NE3       29.89R
KEOKUK *       CLEAR     43  36  75 CALM      29.88S
OTTUMWA        CLOUDY    37  31  78 E3        29.89R
WASHINGTON *   CLOUDY    37  34  87 CALM      29.91R
$$

ABBREVIATIONS USED IN REMARKS
   TC - TEMPERATURES IN CELSIUS
  WCI - WIND CHILL INDEX
   HX - HEAT INDEX
  VSB - VISIBILITY
$$





USA.gov is the U.S. government's official web portal to all federal, state and local government web resources and services.